Regional Weather Roundup
Issued by NWS

Home | Current Version | Previous Version | Graphics & Text | Print | Product List | Glossary On
Versions: 1 2 3 4 5 6 7 8 9 10 11 12 13 14 15 16 17 18 19 20 21 22 23 24 25 26 27 28 29 30 31 32 33 34 35 36 37 38 39 40 41 42 43 44 45 46 47 48 49 50
000
ASUS43 KLMK 240110
RWRKY
KENTUCKY REGIONAL WEATHER ROUNDUP
NATIONAL WEATHER SERVICE LOUISVILLE KY
900 PM EDT SAT JUL 23 2016

NOTE "FAIR" INDICATES FEW OR NO CLOUDS BELOW 12,000 FEET
WITH NO SIGNIFICANT WEATHER AND/OR OBSTRUCTIONS TO VISIBILITY.

KYZ001>023-026-027-061>063-070>075-240200-
WESTERN AND SOUTH CENTRAL KENTUCKY

CITY           SKY/WX    TMP DP  RH WIND       PRES   REMARKS
PADUCAH        CLEAR     85  77  77 SE5       29.92R HX  95
HENDERSON      CLEAR     84  79  84 CALM      29.92R HX  96
OWENSBORO      CLEAR     89  78  70 CALM      29.94R HX 102
HOPKINSVILLE   RAIN      75  75 100 NW9       29.96F
BOWLING GREEN  PTCLDY    87  78  74 S9        29.96R HX 100
GLASGOW        CLEAR     84  75  74 CALM      29.97R HX  92
$$

KYZ024-025-028>034-038-045-046-053-240200-
NORTH CENTRAL KENTUCKY

CITY           SKY/WX    TMP DP  RH WIND       PRES   REMARKS
LOUISVILLE/SDF MOCLDY    89  71  55 S8        29.95R HX  95
LOUISVILLE/LOU MOCLDY    90  71  53 CALM      29.96R HX  96
FORT KNOX      CLEAR     84  76  78 CALM      29.96R HX  93
$$

KYZ035>037-039>044-047>052-055>060-089>105-240200-
NORTHEAST KENTUCKY

CITY           SKY/WX    TMP DP  RH WIND       PRES   REMARKS
LEXINGTON      CLOUDY    86  74  67 W3        29.98R HX  94
COVINGTON      PTCLDY    86  73  65 NW5       29.97R HX  93
FRANKFORT      CLEAR     85  73  67 CALM      29.96R HX  91
$$

KYZ054-064>069-076>088-106>120-240200-
SOUTHEAST KENTUCKY

CITY           SKY/WX    TMP DP  RH WIND       PRES   REMARKS
JACKSON        CLEAR     83  72  69 SE5       30.01R
LONDON         CLEAR     84  69  60 SW5       30.00R
SOMERSET       CLEAR     81  72  74 CALM      30.00S
MIDDLESBORO    MOCLDY    75  73  92 CALM      30.01S
MONTICELLO     PTCLDY   N/A N/A N/A E9        30.02R
$$




USA.gov is the U.S. government's official web portal to all federal, state and local government web resources and services.